Hourly Data Report for September 30, 2017

All times are specified in Local Standard Time (LST). Add 1 hour to adjust for Daylight Saving Time where and when it is observed.

POND INLET A
NUNAVUT

72°41'22.000" N
77°58'08.000" W
61.60 m
2403206
71095
YIO

Related Data

No related data is available for this station

Download Data

Hourly Data (September 2017)
Hourly Data Report for September 30, 2017
Temp Definition
°C
Dew Point Temp Definition
°C
Rel Hum Definition
%
Wind Dir Definition
10's deg

Wind Spd Definition
km/h
Visibility Definition
km
Stn Press Definition
kPa
Hmdx Definition


Wind Chill Definition


Weather Definition


TIME
00:00 Legend Double Dagger -8.5 -9.6 92 15 8 16.1 99.96   -13 LegendNANA
01:00 Legend Double Dagger -8.6 -9.6 93 17 11 16.1 99.99   -14 LegendNANA
02:00 Legend Double Dagger -9.3 -11.1 87 17 11 16.1 100.01   -15 LegendNANA
03:00 Legend Double Dagger -8.6 -9.8 91 18 9 16.1 100.06   -13 LegendNANA
04:00 Legend Double Dagger -7.2 -8.4 91 16 11 16.1 100.07   -12 LegendNANA
05:00 Legend Double Dagger -6.9 -8.4 89 15 13 16.1 100.09   -12 LegendNANA
06:00 Legend Double Dagger -6.5 -7.7 91 15 9 16.1 100.11   -11 LegendNANA
07:00 Legend Double Dagger -8.1 -9.5 90 15 17 16.1 100.12   -15 LegendNANA
08:00 Legend Double Dagger -6.9 -8.0 92 15 15 16.1 100.13   -13 LegendNANA
09:00 Legend Double Dagger -5.5 -7.2 88 15 13 16.1 100.13   -11 LegendNANA
10:00 Legend Double Dagger -4.0 -5.9 87 15 15 16.1 100.16   -9 LegendNANA
11:00 Legend Double Dagger -3.9 -6.8 80 14 21 16.1 100.16   -10 LegendNANA
12:00 Legend Double Dagger -3.9 -7.4 77 14 17 16.1 100.15   -10 LegendNANA
13:00 Legend Double Dagger -4.0 -8.3 72 15 21 16.1 100.16   -10 LegendNANA
14:00 Legend Double Dagger -3.9 -8.1 73 14 18 16.1 100.18   -10 LegendNANA
15:00 Legend Double Dagger -4.4 -8.5 73 9 4 16.1 100.19   -6 LegendNANA
16:00 Legend Double Dagger -4.1 -8.8 70 9 4 16.1 100.19   -6 LegendNANA
17:00 Legend Double Dagger -6.9 -10.5 76 10 5 16.1 100.21   -9 LegendNANA
18:00 Legend Double Dagger -8.1 -11.3 78 14 18 16.1 100.20   -15 LegendNANA
19:00 Legend Double Dagger -7.2 -9.8 82 15 17 16.1 100.21   -14 LegendNANA
20:00 Legend Double Dagger -7.0 -9.6 82 15 22 16.1 100.19   -14 LegendNANA
21:00 Legend Double Dagger -8.7 -10.9 84 16 26 16.1 100.15   -17 LegendNANA
22:00 Legend Double Dagger -5.0 -6.4 90 20 22 16.1 100.14   -12 LegendNANA
23:00 Legend Double Dagger -3.8 -5.4 89 21 21 16.1 100.16   -10 LegendNANA

Notes on Data Quality.

Legend

  • E = Estimated
  • M = Missing
  • NA = Not Available
  • ‡ = Partner data that is not subject to review by the National Climate Archives
Date modified: